When you browse on this site, cookies collect data to enhance your experience and personalize the content and advertising you see.
Visit our Privacy Policy to learn more. By continuing to use the site, you agree to this use of cookies and data.
  • In Hungary
  • List of Countries
  • For 7 days
  • Water Temperature
  • Satellite Maps
  • Weather Map
  • News
  • Weather Widgets
  • user-avatar
    Login

    Hourly Weather Chavakkad

    Today, 23 January, Wednesday

    Time Temperature Precipitation Wind Pressure Humidity
    00:00 +24°C° 0 mm 2 mps 759 mmHg 82%
    01:00 +24°C° 0 mm 2 mps 759 mmHg 83%
    02:00 +23°C° 0 mm 2 mps 759 mmHg 84%
    03:00 +23°C° 0 mm 2 mps 759 mmHg 82%
    04:00 +23°C° 0 mm 2 mps 759 mmHg 79%
    05:00 +21°C° 0 mm 2 mps 759 mmHg 81%
    06:00 +23°C° 0 mm 2 mps 759 mmHg 72%
    07:00 +25°C° 0 mm 2 mps 760 mmHg 63%
    08:00 +26°C° 0 mm 3 mps 760 mmHg 54%
    09:00 +29°C° 0 mm 2 mps 760 mmHg 47%
    10:00 +32°C° 0 mm 2 mps 760 mmHg 40%
    11:00 +35°C° 0 mm 1 mps 759 mmHg 33%
    12:00 +36°C° 0 mm 2 mps 759 mmHg 33%
    13:00 +37°C° 0 mm 3 mps 758 mmHg 33%
    14:00 +37°C° 0 mm 4 mps 757 mmHg 33%
    15:00 +36°C° 0 mm 4 mps 757 mmHg 40%
    16:00 +34°C° 0 mm 4 mps 757 mmHg 48%
    17:00 +33°C° 0 mm 5 mps 757 mmHg 55%
    18:00 +30°C° 0 mm 4 mps 758 mmHg 63%
    19:00 +28°C° 0 mm 4 mps 758 mmHg 72%
    20:00 +27°C° 0 mm 3 mps 759 mmHg 81%
    21:00 +26°C° 0 mm 3 mps 759 mmHg 84%
    22:00 +26°C° 0 mm 2 mps 759 mmHg 87%
    23:00 +25°C° 0 mm 2 mps 760 mmHg 90%

    Tomorrow, 24 January, Thursday

    Time Temperature Precipitation Wind Pressure Humidity
    00:00 +25°C° 0.1 mm 2 mps 759 mmHg 90%
    01:00 +25°C° 0.1 mm 2 mps 759 mmHg 91%
    02:00 +24°C° 0.1 mm 2 mps 759 mmHg 91%
    03:00 +24°C° 0 mm 2 mps 759 mmHg 89%
    04:00 +24°C° 0 mm 2 mps 759 mmHg 87%
    05:00 +24°C° 0 mm 2 mps 759 mmHg 84%
    06:00 +25°C° 0 mm 2 mps 760 mmHg 78%
    07:00 +26°C° 0 mm 2 mps 760 mmHg 72%
    08:00 +27°C° 0 mm 2 mps 761 mmHg 65%
    09:00 +30°C° 0 mm 2 mps 760 mmHg 56%
    10:00 +33°C° 0 mm 1 mps 760 mmHg 48%
    11:00 +35°C° 0 mm 1 mps 760 mmHg 39%
    12:00 +37°C° 0 mm 2 mps 759 mmHg 38%
    13:00 +37°C° 0 mm 3 mps 758 mmHg 37%
    14:00 +38°C° 0 mm 4 mps 757 mmHg 36%
    15:00 +36°C° 0 mm 4 mps 757 mmHg 43%
    16:00 +34°C° 0 mm 4 mps 757 mmHg 50%
    17:00 +32°C° 0 mm 4 mps 757 mmHg 57%
    18:00 +30°C° 0 mm 4 mps 757 mmHg 65%
    19:00 +28°C° 0 mm 4 mps 758 mmHg 73%
    20:00 +27°C° 0 mm 3 mps 759 mmHg 81%
    21:00 +26°C° 0 mm 3 mps 759 mmHg 84%
    22:00 +26°C° 0 mm 2 mps 759 mmHg 87%
    23:00 +26°C° 0 mm 1 mps 759 mmHg 89%

    Day after tomorrow, 25 January, Friday

    Time Temperature Precipitation Wind Pressure Humidity
    00:00 +25°C° 0.2 mm 1 mps 759 mmHg 90%
    01:00 +25°C° 0.2 mm 1 mps 759 mmHg 90%
    02:00 +25°C° 0.2 mm 1 mps 758 mmHg 91%
    03:00 +25°C° 0.1 mm 2 mps 758 mmHg 90%
    04:00 +24°C° 0.1 mm 2 mps 758 mmHg 88%
    05:00 +24°C° 0.1 mm 2 mps 758 mmHg 87%
    06:00 +25°C° 0 mm 2 mps 759 mmHg 81%
    07:00 +26°C° 0 mm 2 mps 760 mmHg 74%
    08:00 +27°C° 0 mm 2 mps 760 mmHg 68%
    09:00 +30°C° 0 mm 2 mps 760 mmHg 58%
    10:00 +34°C° 0 mm 2 mps 760 mmHg 49%
    11:00 +35°C° 0 mm 1 mps 760 mmHg 40%
    12:00 +37°C° 0 mm 2 mps 759 mmHg 40%
    13:00 +37°C° 0 mm 3 mps 758 mmHg 40%
    14:00 +37°C° 0 mm 4 mps 757 mmHg 40%
    15:00 +35°C° 0 mm 4 mps 757 mmHg 46%
    16:00 +34°C° 0 mm 4 mps 757 mmHg 53%
    17:00 +32°C° 0 mm 4 mps 757 mmHg 60%
    18:00 +30°C° 0 mm 4 mps 758 mmHg 67%
    19:00 +28°C° 0 mm 3 mps 758 mmHg 75%
    20:00 +27°C° 0 mm 2 mps 759 mmHg 82%
    21:00 +26°C° 0 mm 2 mps 759 mmHg 85%
    22:00 +26°C° 0 mm 2 mps 759 mmHg 87%
    23:00 +26°C° 0 mm 2 mps 759 mmHg 89%

    26 January, Saturday

    Time Temperature Precipitation Wind Pressure Humidity
    00:00 +25°C° 0.1 mm 2 mps 759 mmHg 90%
    01:00 +25°C° 0.1 mm 2 mps 759 mmHg 90%
    02:00 +25°C° 0.1 mm 2 mps 758 mmHg 91%
    03:00 +25°C° 0 mm 2 mps 758 mmHg 88%
    04:00 +24°C° 0 mm 2 mps 758 mmHg 85%
    05:00 +24°C° 0 mm 2 mps 758 mmHg 82%
    06:00 +25°C° 0 mm 2 mps 759 mmHg 77%
    07:00 +26°C° 0 mm 3 mps 759 mmHg 73%
    08:00 +27°C° 0 mm 3 mps 760 mmHg 68%
    09:00 +30°C° 0 mm 2 mps 760 mmHg 59%
    10:00 +33°C° 0 mm 1 mps 760 mmHg 50%
    11:00 +36°C° 0 mm 1 mps 760 mmHg 41%
    12:00 +37°C° 0 mm 2 mps 759 mmHg 41%
    13:00 +37°C° 0 mm 3 mps 758 mmHg 40%
    14:00 +37°C° 0 mm 4 mps 757 mmHg 39%
    15:00 +35°C° 0 mm 4 mps 757 mmHg 47%
    16:00 +34°C° 0 mm 4 mps 757 mmHg 55%
    17:00 +32°C° 0 mm 4 mps 757 mmHg 62%
    18:00 +29°C° 0 mm 4 mps 758 mmHg 69%
    19:00 +28°C° 0 mm 3 mps 759 mmHg 76%
    20:00 +27°C° 0 mm 2 mps 759 mmHg 82%
    21:00 +27°C° 0.2 mm 2 mps 760 mmHg 85%
    22:00 +26°C° 0.2 mm 2 mps 760 mmHg 87%
    23:00 +26°C° 0.2 mm 2 mps 761 mmHg 89%

    27 January, Sunday

    Time Temperature Precipitation Wind Pressure Humidity
    00:00 +26°C° 0.1 mm 2 mps 760 mmHg 90%
    01:00 +25°C° 0.1 mm 2 mps 759 mmHg 90%
    02:00 +25°C° 0.1 mm 2 mps 759 mmHg 91%
    03:00 +25°C° 0 mm 2 mps 759 mmHg 91%
    04:00 +25°C° 0 mm 2 mps 759 mmHg 91%
    05:00 +25°C° 0 mm 2 mps 759 mmHg 91%
    06:00 +26°C° 0.1 mm 2 mps 760 mmHg 86%
    07:00 +27°C° 0.1 mm 2 mps 760 mmHg 80%
    08:00 +28°C° 0.1 mm 3 mps 761 mmHg 74%
    09:00 +30°C° 0 mm 2 mps 761 mmHg 65%
    10:00 +34°C° 0 mm 2 mps 760 mmHg 55%
    11:00 +35°C° 0 mm 1 mps 760 mmHg 45%
    12:00 +36°C° 0 mm 2 mps 759 mmHg 45%
    13:00 +36°C° 0 mm 3 mps 758 mmHg 46%
    14:00 +36°C° 0 mm 4 mps 757 mmHg 46%
    15:00 +34°C° 0 mm 4 mps 757 mmHg 52%
    16:00 +33°C° 0 mm 4 mps 757 mmHg 58%
    17:00 +32°C° 0 mm 4 mps 757 mmHg 64%
    18:00 +30°C° 0 mm 4 mps 758 mmHg 70%
    19:00 +29°C° 0 mm 4 mps 759 mmHg 76%
    20:00 +27°C° 0 mm 3 mps 759 mmHg 81%
    21:00 +27°C° 0.1 mm 3 mps 759 mmHg 83%
    22:00 +27°C° 0.1 mm 3 mps 760 mmHg 85%
    23:00 +26°C° 0.1 mm 3 mps 760 mmHg 86%

    28 January, Monday

    Time Temperature Precipitation Wind Pressure Humidity
    00:00 +26°C° 0.4 mm 3 mps 760 mmHg 86%
    01:00 +26°C° 0.4 mm 3 mps 759 mmHg 85%
    02:00 +25°C° 0.4 mm 2 mps 759 mmHg 84%
    03:00 +25°C° 0 mm 3 mps 759 mmHg 84%
    04:00 +25°C° 0 mm 3 mps 759 mmHg 83%
    05:00 +25°C° 0 mm 3 mps 759 mmHg 82%
    06:00 +26°C° 0 mm 4 mps 760 mmHg 77%
    07:00 +27°C° 0 mm 4 mps 760 mmHg 73%
    08:00 +28°C° 0 mm 4 mps 761 mmHg 68%
    09:00 +30°C° 0 mm 3 mps 761 mmHg 60%
    10:00 +33°C° 0 mm 3 mps 761 mmHg 52%
    11:00 +36°C° 0 mm 2 mps 761 mmHg 43%
    12:00 +37°C° 0 mm 2 mps 760 mmHg 41%
    13:00 +38°C° 0 mm 3 mps 759 mmHg 38%
    14:00 +38°C° 0 mm 3 mps 758 mmHg 36%
    15:00 +37°C° 0 mm 4 mps 758 mmHg 42%
    16:00 +35°C° 0 mm 4 mps 758 mmHg 49%
    17:00 +33°C° 0 mm 4 mps 758 mmHg 55%
    18:00 +32°C° 0 mm 4 mps 758 mmHg 61%
    19:00 +29°C° 0 mm 3 mps 759 mmHg 67%
    20:00 +28°C° 0 mm 3 mps 759 mmHg 72%
    21:00 +27°C° 0 mm 3 mps 760 mmHg 73%
    22:00 +27°C° 0 mm 3 mps 760 mmHg 75%
    23:00 +26°C° 0 mm 3 mps 760 mmHg 76%
    Show more